{"data":{"norad_id":60435,"epoch":"2026-05-25T04:25:56.642304Z","epoch_age_seconds":54966,"freshness":"FRESH","line1":"1 60435U 24144L   26145.18468336 -.00000442  00000+0 -19687-5 0  9997","line2":"2 60435  53.1606 220.9164 0000693  50.2418 309.8646 15.34396474101030","mean_motion":15.34396474,"eccentricity":6.93e-5,"inclination_deg":53.1606,"raan_deg":220.9164,"arg_perigee_deg":50.2418,"mean_anomaly_deg":309.8646,"bstar":-1.9687e-6,"rev_number":10103,"period_min":93.847973740847,"perigee_km":462.23964928733,"apogee_km":463.18779119716,"semimajor_km":6840.8507202422,"source":"CELESTRAK","updated_at":"2026-05-25T13:38:19.274691Z"}}